Location: ?????????
(55.6553°N, 38.9075°E)
Time: 02:58:27
(UTC+00:00)

NOSS 3-1 (C) - Pass Details

Date: 18 October 2019
Orbit: 770 x 1439 km, 63.4° (Epoch: 09 November)

Event Time Altitude Azimuth Distance (km) Brightness Sun altitude
Exits shadow 03:15:25 - 299° (WNW) 3,170 5.6 -7.0°
Reaches altitude 10° 03:16:27 10° 302° (WNW) 2,819 5.4 -6.9°
Maximum altitude 03:23:02 53° 19° (NNE) 1,389 4.4 -5.9°
Drops below altitude 10° 03:30:47 10° 96° (E) 3,296 8.2 -4.9°
Sets 03:33:55 0° 101° (E) 4,347 10.2 -4.4°
